Weather History for Hebron, NE

Change the Weather History Date:

Tuesday, July 22, 2014

  Actual Average Record
Temperature  
Mean Temperature 82 °F -  
Max Temperature 95 °F 88 °F 106 °F (1974)
Min Temperature 70 °F 65 °F 52 °F (1970)
Cooling Degree Days 18    
Growing Degree Days 32 (Base 50)    
Moisture  
Dew Point 70 °F    
Average Humidity 61    
Maximum Humidity 86    
Minimum Humidity 45    
Precipitation  
Precipitation 0.00 in - - ()
Sea Level Pressure  
Sea Level Pressure 30.04 in    
Wind  
Wind Speed 6 mph (NNW)    
Max Wind Speed 15 mph    
Max Gust Speed 22 mph    
Visibility 10 miles    
Events      
Averages and records for this station are not official NWS values.
T = Trace of Precipitation, MM = Missing Value Source: NWS Daily Summary

Daily Weather History Graph

Daily Weather History Graph

Search for Another Location

Airport:

Trip Planner

Search our weather history database for the weather conditions in past years. The results will help you decide how hot, cold, wet, or windy it might be!

Date:

Astronomy

Jul. 22, 2014 Rise Set
Actual Time 6:19 AM CDT 8:53 PM CDT
Civil Twilight 5:48 AM CDT 9:24 PM CDT
Nautical Twilight 5:09 AM CDT 10:03 PM CDT
Astronomical Twilight 4:25 AM CDT 10:47 PM CDT
Moon 2:53 AM CDT (7/22) 5:32 PM CDT (7/22)
Length of Visible Light 15h 36m
Length of Day
14h 34m
Waning Crescent, 16% of the Moon is Illuminated
Jul 22
Waning Crescent
Jul 26
New
Aug 3
First Quarter
Aug 10
Full
Aug 17
Last Quarter

Hourly Weather History & Observations

Time (CDT) Temp. Heat Index Dew Point Humidity Pressure Visibility Wind Dir Wind Speed Gust Speed Precip Events Conditions
12:15 AM 85.3 °F 89.8 °F 69.8 °F 60% 29.94 in 10.0 mi SSW 8.1 mph - N/A   Clear
12:35 AM 84.2 °F 88.4 °F 69.8 °F 62% 29.95 in 10.0 mi SSW 6.9 mph - N/A   Clear
12:55 AM 83.5 °F 87.4 °F 69.6 °F 63% 29.95 in 10.0 mi SSW 6.9 mph - N/A   Clear
1:15 AM 82.4 °F 85.8 °F 69.3 °F 64% 29.96 in 10.0 mi SW 4.6 mph - N/A   Clear
1:35 AM 80.8 °F 83.8 °F 69.1 °F 67% 29.95 in 10.0 mi SSW 3.5 mph - N/A   Clear
1:55 AM 80.4 °F 83.2 °F 68.7 °F 67% 29.95 in 10.0 mi SSW 5.8 mph - N/A   Clear
2:15 AM 80.4 °F 83.1 °F 68.2 °F 66% 29.96 in 10.0 mi SW 5.8 mph - N/A   Clear
2:35 AM 79.7 °F - 68.0 °F 67% 29.96 in 10.0 mi SSW 4.6 mph - N/A   Clear
2:55 AM 79.7 °F - 67.6 °F 66% 29.95 in 10.0 mi SSW 8.1 mph - N/A   Clear
3:15 AM 78.8 °F - 67.5 °F 68% 29.95 in 10.0 mi SSW 8.1 mph - N/A   Clear
3:35 AM 78.1 °F - 67.5 °F 70% 29.95 in 10.0 mi SSW 5.8 mph - N/A   Clear
3:55 AM 77.4 °F - 67.5 °F 71% 29.96 in 10.0 mi SSW 5.8 mph - N/A   Clear
4:15 AM 77.0 °F - 67.3 °F 72% 29.96 in 10.0 mi SSW 4.6 mph - N/A   Clear
4:35 AM 76.3 °F - 67.3 °F 74% 29.96 in 10.0 mi Calm Calm - N/A   Clear
4:55 AM 74.8 °F - 67.3 °F 77% 29.97 in 10.0 mi WSW 3.5 mph - N/A   Clear
5:15 AM 73.6 °F - 67.3 °F 81% 29.98 in 10.0 mi Calm Calm - N/A   Clear
6:35 AM 70.7 °F - 66.4 °F 86% 30.00 in 5.0 mi Calm Calm - N/A   Haze
6:55 AM 72.7 °F - 68.0 °F 85% 30.02 in 7.0 mi WSW 3.5 mph - N/A   Clear
7:15 AM 73.0 °F - 68.4 °F 85% 30.03 in 5.0 mi SW 4.6 mph - N/A   Haze
7:35 AM 76.1 °F - 69.6 °F 80% 30.03 in 7.0 mi WSW 6.9 mph - N/A   Clear
7:55 AM 77.2 °F - 69.4 °F 77% 30.03 in 10.0 mi WSW 6.9 mph - N/A   Clear
8:15 AM 79.2 °F - 69.8 °F 73% 30.04 in 10.0 mi West 4.6 mph - N/A   Clear
8:35 AM 81.3 °F 84.6 °F 69.4 °F 67% 30.04 in 10.0 mi Calm Calm - N/A   Clear
8:55 AM 83.1 °F 86.6 °F 68.9 °F 62% 30.05 in 10.0 mi West 5.8 mph - N/A   Clear
9:15 AM 84.6 °F 87.9 °F 68.5 °F 58% 30.05 in 10.0 mi West 6.9 mph - N/A   Clear
9:35 AM 85.3 °F 88.2 °F 67.5 °F 55% 30.05 in 10.0 mi West 4.6 mph - N/A   Clear
9:55 AM 86.5 °F 89.0 °F 66.6 °F 51% 30.03 in 10.0 mi WSW 5.8 mph - N/A   Clear
10:15 AM 87.1 °F 90.2 °F 67.3 °F 52% 30.03 in 10.0 mi West 4.6 mph - N/A   Clear
10:35 AM 88.3 °F 92.0 °F 68.0 °F 51% 30.03 in 10.0 mi West 3.5 mph - N/A   Clear
10:55 AM 89.1 °F 92.9 °F 68.4 °F 50% 30.04 in 10.0 mi WSW 6.9 mph - N/A   Clear
11:15 AM 89.2 °F 93.2 °F 68.5 °F 50% 30.05 in 10.0 mi West 6.9 mph - N/A   Clear
11:35 AM 90.0 °F 93.2 °F 67.1 °F 47% 30.04 in 10.0 mi WSW 4.6 mph - N/A   Clear
12:15 PM 90.5 °F 94.2 °F 67.5 °F 47% 30.03 in 10.0 mi SSW 4.6 mph - N/A   Clear
12:35 PM 90.5 °F 94.2 °F 67.6 °F 47% 30.04 in 10.0 mi Calm Calm - N/A   Clear
12:55 PM 91.6 °F 95.7 °F 68.4 °F 46% 30.05 in 10.0 mi NW 5.8 mph - N/A   Clear
1:15 PM 92.5 °F 97.4 °F 68.7 °F 46% 30.05 in 10.0 mi North 6.9 mph - N/A   Clear
1:35 PM 92.3 °F 99.7 °F 71.8 °F 51% 30.05 in 10.0 mi North 8.1 mph - N/A   Clear
1:55 PM 92.3 °F 99.7 °F 71.6 °F 51% 30.06 in 10.0 mi NNW 9.2 mph - N/A   Clear
2:15 PM 93.2 °F 100.5 °F 71.6 °F 49% 30.05 in 10.0 mi NNE 5.8 mph - N/A   Clear
2:35 PM 94.1 °F 100.0 °F 70.0 °F 45% 30.06 in 10.0 mi Calm Calm - N/A   Clear
2:55 PM 94.5 °F 103.3 °F 72.7 °F 49% 30.06 in 10.0 mi North 6.9 mph - N/A   Clear
3:15 PM 94.5 °F 102.6 °F 72.1 °F 48% 30.06 in 10.0 mi NNE 4.6 mph - N/A   Clear
3:35 PM 95.2 °F 102.3 °F 71.1 °F 45% 30.07 in 10.0 mi North 3.5 mph - N/A   Clear
3:55 PM 95.9 °F 103.8 °F 71.4 °F 45% 30.07 in 10.0 mi North 3.5 mph - N/A   Clear
4:15 PM 95.9 °F 107.4 °F 74.7 °F 50% 30.07 in 10.0 mi North 9.2 mph - N/A   Scattered Clouds
4:35 PM 95.5 °F 105.8 °F 73.6 °F 49% 30.07 in 10.0 mi NNE 11.5 mph - N/A   Clear
4:55 PM 95.9 °F 105.2 °F 72.9 °F 47% 30.07 in 10.0 mi North 9.2 mph - N/A   Scattered Clouds
5:15 PM 94.5 °F 105.3 °F 74.3 °F 52% 30.07 in 10.0 mi NNE 15.0 mph 21.9 mph N/A   Mostly Cloudy
5:35 PM 93.4 °F 102.1 °F 73.0 °F 51% 30.08 in 10.0 mi NNE 15.0 mph - N/A   Scattered Clouds
5:55 PM 93.4 °F 102.8 °F 73.6 °F 52% 30.07 in 10.0 mi NNE 10.4 mph 17.3 mph N/A   Clear
6:15 PM 93.2 °F 102.4 °F 73.4 °F 52% 30.07 in 10.0 mi NE 11.5 mph 17.3 mph N/A   Clear
6:35 PM 92.3 °F 100.9 °F 72.7 °F 53% 30.07 in 10.0 mi NE 12.7 mph 18.4 mph N/A   Clear
6:55 PM 91.6 °F 98.8 °F 71.6 °F 52% 30.08 in 10.0 mi NE 10.4 mph - N/A   Clear
7:15 PM 90.7 °F 96.9 °F 70.7 °F 52% 30.08 in 10.0 mi NNE 12.7 mph 17.3 mph N/A   Clear
7:35 PM 89.1 °F 95.0 °F 70.9 °F 55% 30.08 in 10.0 mi NNE 8.1 mph - N/A   Clear
7:55 PM 88.2 °F 92.5 °F 68.9 °F 53% 30.09 in 10.0 mi NE 9.2 mph - N/A   Clear
8:15 PM 86.5 °F 91.0 °F 69.6 °F 57% 30.09 in 10.0 mi NE 6.9 mph - N/A   Clear
8:35 PM 85.1 °F 89.8 °F 70.2 °F 61% 30.10 in 10.0 mi NE 5.8 mph - N/A   Clear
8:55 PM 83.5 °F 87.4 °F 69.8 °F 63% 30.11 in 10.0 mi NE 6.9 mph - N/A   Clear
9:15 PM 82.0 °F 85.9 °F 70.2 °F 67% 30.11 in 10.0 mi NE 4.6 mph - N/A   Clear
9:35 PM 81.1 °F 84.5 °F 69.8 °F 68% 30.12 in 10.0 mi NE 5.8 mph - N/A   Clear
9:55 PM 80.8 °F 83.8 °F 68.9 °F 67% 30.12 in 10.0 mi NE 6.9 mph - N/A   Clear
10:15 PM 80.1 °F 82.8 °F 68.7 °F 68% 30.13 in 10.0 mi NE 5.8 mph - N/A   Clear
10:35 PM 79.2 °F - 68.9 °F 71% 30.14 in 10.0 mi NE 4.6 mph - N/A   Clear
10:55 PM 78.3 °F - 68.9 °F 73% 30.15 in 10.0 mi NE 6.9 mph - N/A   Clear
11:15 PM 78.1 °F - 68.5 °F 72% 30.16 in 10.0 mi NE 6.9 mph - N/A   Clear
11:35 PM 77.0 °F - 68.7 °F 75% 30.17 in 10.0 mi NE 5.8 mph - N/A   Clear
11:55 PM 76.1 °F - 68.7 °F 78% 30.17 in 10.0 mi NE 4.6 mph - N/A   Clear